Location: Unnamed
(42.1164°N, 2.7652°E)
Time: 20:55:14
(UTC+02:00)

ISS - Pass Details

Date: 13 May 2021
Orbit: 417 x 422 km, 51.6° (Epoch: 14 June)

Event Time Altitude Azimuth Distance (km) Brightness Sun altitude
Exits shadow 02:03:52 17° 9° (N) 1,163 -0.7 -29.3°
Drops below altitude 10° 02:05:27 10° 36° (NE) 1,508 -0.2 -29.3°
Sets 02:08:01 0° 56° (NE) 2,375 0.6 -29.3°
